Simultaneous Nadir Overpasses (SNOs) Predictions

Prediction of SNOs between LANDSAT-8 and NOAA-19 Satellite Orbit:

Table of predicted SNOs for the next 14.0 days since TLE Epoch: 6/4/2016
Index Date (LANDSAT-8) Time (LANDSAT-8) Lat,Lon (LANDSAT-8) SZA (LANDSAT-8 ) Date (NOAA-19) Time (NOAA-19) Lat,Lon (NOAA-19) SZA (NOAA-19 ) Distance(km) Time Diff (sec)
1 06/04/2016 15:11:02 74.71, -43.03 52.17 06/04/2016 15:10:09 74.72, -43.14 52.18 3.44 53
2 06/04/2016 16:00:31 -74.64, 124.42 127.92 06/04/2016 16:01:07 -74.64, 124.36 127.91 1.57 36
3 06/06/2016 20:44:48 -74.69, 53.47 128.09 06/06/2016 20:44:11 -74.70, 53.48 128.08 1.30 37
4 06/06/2016 21:34:15 74.61,-139.08 51.82 06/06/2016 21:35:12 74.61,-139.04 51.84 1.15 57
5 06/09/2016 02:18:31 74.70, 150.08 51.73 06/09/2016 02:18:17 74.70, 150.00 51.72 2.56 14
6 06/09/2016 03:08:00 -74.63, -42.45 128.35 06/09/2016 03:09:14 -74.62, -42.51 128.36 2.55 74
7 06/11/2016 07:02:39 75.20, 80.30 52.09 06/11/2016 07:01:32 75.25, 77.62 52.08 76.38 67
8 06/11/2016 07:52:17 -74.67,-113.42 128.47 06/11/2016 07:52:18 -74.68,-113.41 128.46 0.99 1
9 06/13/2016 12:36:33 -74.76, 175.73 128.51 06/13/2016 12:35:22 -74.75, 175.68 128.53 1.72 71
10 06/13/2016 13:26:00 74.68, -16.84 51.40 06/13/2016 13:26:25 74.69, -16.91 51.42 2.53 25
11 06/15/2016 18:10:16 74.76, -87.71 51.39 06/15/2016 18:09:29 74.74, -87.77 51.37 2.63 47
12 06/15/2016 18:59:45 -74.70, 79.77 128.68 06/15/2016 19:00:25 -74.68, 79.67 128.69 3.50 40
13 06/17/2016 23:44:02 -74.72,
